Location: Newark
(49.0931°N, 0.8567°W)
Time: 02:31:40
(UTC+00:00)

ISS - Visible Passes

Search period start: 21 January 2020 00:00
Search period end: 31 January 2020 00:00
Orbit: 415 x 421 km, 51.6° (Epoch: 21 January)

Date Brightness Start Highest point End Pass type
(mag) Time Alt. Az. Time Alt. Az. Time Alt. Az.
21 Jan -1.8 18:11:45 10° S 18:13:50 16° SE 18:14:04 15° SE visible
21 Jan -0.5 19:46:48 10° WSW 19:47:01 11° WSW 19:47:01 11° WSW visible
22 Jan -2.5 18:58:55 10° SW 19:01:12 35° SSW 19:01:12 35° SSW visible
23 Jan -2.8 18:11:11 10° SSW 18:14:15 33° SSE 18:15:19 26° ESE visible
23 Jan -0.7 19:47:31 10° W 19:48:15 16° W 19:48:15 16° W visible
24 Jan -2.1 17:23:39 10° SSW 17:26:21 22° SE 17:29:03 10° E visible
24 Jan -3.3 18:59:27 10° WSW 19:02:18 61° WSW 19:02:18 61° WSW visible
25 Jan -3.7 18:11:26 10° WSW 18:14:47 68° SSE 18:16:17 30° E visible
25 Jan -0.8 19:48:20 10° W 19:49:13 17° W 19:49:13 17° W visible
26 Jan -3.2 17:23:31 10° SW 17:26:47 47° SSE 17:30:02 10° ENE visible
26 Jan -3.2 19:00:12 10° W 19:03:10 55° NW 19:03:10 55° NW visible
27 Jan -3.7 18:12:03 10° W 18:15:25 72° NNW 18:17:04 27° ENE visible
27 Jan -0.8 19:49:07 10° WNW 19:50:00 17° WNW 19:50:00 17° WNW visible
28 Jan -3.7 17:23:56 10° WSW 17:27:19 89° SSE 17:30:42 10° ENE visible
28 Jan -3.1 19:00:57 10° W 19:03:53 49° NNW 19:03:53 49° NNW visible
29 Jan -3.4 18:12:48 10° W 18:16:07 55° N 18:17:46 26° ENE visible
29 Jan -0.9 19:49:45 10° WNW 19:50:42 17° WNW 19:50:42 17° WNW visible
30 Jan -3.3 19:01:38 10° WNW 19:04:35 54° NNW 19:04:35 54° NNW visible
